"Pseudo-MPEC" for P11WHdw

Created 2024 Aug 2 16:22:06 UT using Find_Orb

Click here for an explanation of pseudo-MPECs

 
 Astrometry: 
     P11WHdw* C2024 07 30.48938921 40 13.093-20 16 10.53   ~81Gq 20.66wXNEOCPF51
     P11WHdw  C2024 07 30.50920521 40 09.083-20 14 39.87   ~81Gq 20.98wXNEOCPF51
     P11WHdw  C2024 07 30.51912621 40 07.036-20 13 54.70   ~81Gq 20.73wXNEOCPF51

Station data:
(F51) Pan-STARRS 1, Haleakala  (N20.707234 W156.255910)  US/Hawaii.
   Observers J. Bulger, T. Lowe, A. Schultz, M. Willman. Measurers K.
   Chambers, S. Chastel, T. de Boer, L. Denneau, J. Fairlamb, H. Flewelling,
   M. Huber, C.-C. Lin, E. Magnier, Y. Ramanjooloo, R. Wainscoat, R. Weryk.
   1.8-m Ritchey-Chrétien + CCD.

Orbital elements:  P11WHdw
   Perihelion 2024 Oct 6.34156 +/- 52.7 TT =  8:11:50 (JD 2460589.84156)
Epoch 2024 Jul 31.0 TT = JDT 2460522.5   Earth MOID: 0.0926   Ma: 0.0827
M 335.58412747 +/- 29               (J2000 ecliptic)             AutoNEOCP
n   0.36256768 +/- 0.302            Peri.   91.19923 +/- 60
a   1.94779531 +/- 1.08             Node   311.99886 +/- 24
e   0.6313186 +/- 0.27              Incl.   24.31592 +/- 13
P   2.718/992.899d         H 22.88  G  0.15   U 11.9  SR
q 0.71811585 +/- 0.305    Q 3.17747477 +/- 35.7
From 3 observations 2024 July 30 (42.8 min); mean residual 0".14
Residuals in arcseconds: 
240730 F51  .08-  .05-    240730 F51  .23+  .16+    240730 F51  .16-  .11-    

Ephemerides (geocentric):
Date (UTC) HH   RA             Dec           delta  r     elong  mag " sig PA
---- --------  ------------   ------------  ------ ------ -----  --- --------
2024 08 02 16  21 28 32.093   -15 24 49.15  .17652 1.1894 170.9 20.0  27d  69
2024 08 02 17  21 28 21.234   -15 20 13.64  .17608 1.1890 171.0 20.0  28d  69
2024 08 02 18  21 28 10.325   -15 15 36.74  .17564 1.1886 171.1 20.0  28d  69
2024 08 02 19  21 27 59.367   -15 10 58.41  .17520 1.1882 171.1 20.0  29d  70
2024 08 02 20  21 27 48.360   -15 06 18.66  .17476 1.1878 171.2 20.0  29d  70
2024 08 02 21  21 27 37.303   -15 01 37.47  .17432 1.1873 171.2 20.0  30d  71
2024 08 02 22  21 27 26.196   -14 56 54.84  .17388 1.1869 171.3 20.0  30d  71
2024 08 02 23  21 27 15.039   -14 52 10.76  .17344 1.1865 171.3 20.0  30d  72
2024 08 03 00  21 27 03.831   -14 47 25.22  .17300 1.1861 171.4 20.0  30d  72
2024 08 03 01  21 26 52.572   -14 42 38.20  .17256 1.1857 171.5 20.0  30d  72
2024 08 03 02  21 26 41.262   -14 37 49.71  .17213 1.1852 171.5 20.0  30d  73
2024 08 03 03  21 26 29.901   -14 32 59.73  .17169 1.1848 171.6 19.9  30d  73
2024 08 03 04  21 26 18.488   -14 28 08.24  .17125 1.1844 171.6 19.9  30d  73
2024 08 03 05  21 26 07.023   -14 23 15.26  .17082 1.1840 171.7 19.9  30d  73
2024 08 03 06  21 25 55.506   -14 18 20.75  .17039 1.1836 171.7 19.9  30d  73
2024 08 03 07  21 25 43.936   -14 13 24.72  .16995 1.1832 171.8 19.9  31d  73
2024 08 03 08  21 25 32.313   -14 08 27.15  .16952 1.1827 171.8 19.9  31d  73
2024 08 03 09  21 25 20.638   -14 03 28.04  .16909 1.1823 171.9 19.9  31d  72
2024 08 03 10  21 25 08.909   -13 58 27.38  .16865 1.1819 171.9 19.9  31d  72
2024 08 03 11  21 24 57.126   -13 53 25.15  .16822 1.1815 172.0 19.9  31d  72
2024 08 03 12  21 24 45.290   -13 48 21.34  .16779 1.1811 172.0 19.9  32d  72
2024 08 03 13  21 24 33.399   -13 43 15.96  .16736 1.1806 172.0 19.9  32d  71
2024 08 03 14  21 24 21.454   -13 38 08.97  .16693 1.1802 172.1 19.9  33d  71
2024 08 03 15  21 24 09.453   -13 33 00.39  .16650 1.1798 172.1 19.9  33d  72
2024 08 03 16  21 23 57.398   -13 27 50.19  .16607 1.1794 172.2 19.8  33d  72
2024 08 03 17  21 23 45.287   -13 22 38.37  .16565 1.1790 172.2 19.8  34d  72
2024 08 03 18  21 23 33.121   -13 17 24.92  .16522 1.1786 172.2 19.8  34d  72
2024 08 03 19  21 23 20.898   -13 12 09.82  .16479 1.1781 172.3 19.8  34d  73
2024 08 03 20  21 23 08.620   -13 06 53.07  .16437 1.1777 172.3 19.8  34d  73
2024 08 03 21  21 22 56.284   -13 01 34.66  .16394 1.1773 172.3 19.8  34d  73
2024 08 03 22  21 22 43.892   -12 56 14.58  .16352 1.1769 172.4 19.8  34d  73
2024 08 03 23  21 22 31.442   -12 50 52.81  .16309 1.1765 172.4 19.8  34d  73
2024 08 04 00  21 22 18.934   -12 45 29.34  .16267 1.1760 172.4 19.8  34d  74
2024 08 04 01  21 22 06.369   -12 40 04.17  .16225 1.1756 172.4 19.8  34d  74
2024 08 04 02  21 21 53.745   -12 34 37.29  .16183 1.1752 172.5 19.8  35d  74
2024 08 04 03  21 21 41.063   -12 29 08.68  .16140 1.1748 172.5 19.8  35d  74
2024 08 04 04  21 21 28.322   -12 23 38.34  .16098 1.1744 172.5 19.8  35d  74
2024 08 04 05  21 21 15.522   -12 18 06.25  .16056 1.1740 172.5 19.7  35d  74
2024 08 04 06  21 21 02.662   -12 12 32.40  .16014 1.1735 172.5 19.7  35d  74
2024 08 04 07  21 20 49.742   -12 06 56.78  .15973 1.1731 172.5 19.7  35d  74
2024 08 04 08  21 20 36.762   -12 01 19.39  .15931 1.1727 172.5 19.7  35d  75
2024 08 04 09  21 20 23.721   -11 55 40.20  .15889 1.1723 172.5 19.7  35d  75
2024 08 04 10  21 20 10.620   -11 49 59.22  .15847 1.1719 172.6 19.7  35d  75
2024 08 04 11  21 19 57.457   -11 44 16.42  .15806 1.1715 172.6 19.7  35d  75
2024 08 04 12  21 19 44.233   -11 38 31.80  .15764 1.1710 172.6 19.7  35d  75
2024 08 04 13  21 19 30.946   -11 32 45.35  .15723 1.1706 172.6 19.7  35d  75
2024 08 04 14  21 19 17.598   -11 26 57.05  .15682 1.1702 172.5 19.7  35d  75
2024 08 04 15  21 19 04.186   -11 21 06.90  .15640 1.1698 172.5 19.7  35d  75